Temperature
15 15 15 15 15 15 16 16 16 16 16 16 17 17 17 17 17 18 18 17 17 17 17 17 18 18 18 18 18 18 18 18 18 18 18 18 18 18 18 18 17 17 17
14 14 15 15 15 15 15 15 16 16 16 16 16 17 17 17 17 17 18 18 17 17 17 17 17 17 17 17 18 18 18 17 17 18 17 17 18 18 18 18 17 17 17
14 14 14 14 14 15 15 15 15 15 16 16 16 16 16 17 17 17 17 18 18 17 17 17 17 17 17 17 18 18 17 17 17 17 17 17 17 18 17 17 17 17 17
13 14 14 14 14 14 15 15 15 15 15 16 16 16 16 17 17 17 17 18 18 18 17 17 17 17 17 17 17 17 17 17 17 17 17 17 17 17 17 17 17 17 17
13 13 13 14 14 14 14 14 14 15 15 15 15 16 16 16 17 17 17 17 18 18 17 17 17 17 17 17 17 17 17 17 17 17 17 17 17 17 17 17 17 17 17
13 13 13 13 13 14 14 14 14 14 14 15 15 15 16 16 16 17 17 17 17 17 17 17 17 17 17 17 17 17 17 17 17 17 17 17 17 17 17 17 17 17 17
13 13 13 13 13 13 13 14 14 14 14 14 15 15 15 16 16 16 17 17 17 17 17 17 17 17 17 17 17 17 17 17 17 17 17 17 17 17 17 17 17 17 17
12 12 13 13 13 13 13 13 13 13 14 14 14 14 15 15 16 16 17 17 17 17 17 17 17 17 17 17 17 17 17 17 17 17 17 17 17 17 17 17 17 17 17
12 12 12 12 13 13 13 13 13 13 13 13 14 14 14 15 15 16 16 16 17 17 17 17 17 17 17 17 17 17 17 17 17 17 17 17 17 17 17 17 17 17 17
12 12 12 12 12 12 13 13 13 13 13 13 13 13 14 14 14 15 16 16 16 16 17 17 17 17 17 17 17 17 17 17 17 17 17 17 17 17 17 17 17 17 16
12 12 12 12 12 12 12 12 13 13 13 13 13 13 13 14 14 14 14 15 16 16 16 16 17 17 17 17 17 17 17 17 17 17 17 17 17 17 17 17 17 17 17
12 12 12 12 12 12 12 12 12 12 13 13 13 13 13 13 14 14 14 14 15 15 16 16 16 17 17 17 17 17 17 17 17 17 17 17 17 17 17 17 17 17 16
12 12 12 12 12 12 12 12 12 12 12 13 13 13 13 13 13 13 13 14 14 15 15 16 16 16 16 16 17 17 17 17 17 17 17 16 16 16 16 16 16 16 16
11 11 12 12 12 12 12 12 12 12 12 13 13 13 13 13 13 13 13 13 13 14 15 15 15 16 16 16 16 16 16 17 17 17 16 16 16 16 16 16 16 16 16
11 12 12 12 12 12 12 12 12 12 12 12 13 13 13 13 13 13 13 13 13 13 14 15 15 15 15 16 16 16 16 16 16 16 16 16 16 16 16 16 16 16 16
12 12 12 12 12 12 12 12 12 12 12 12 12 13 13 13 13 13 13 13 13 13 13 14 14 15 15 15 15 15 16 16 16 16 16 16 16 16 16 16 16 16 16
12 12 12 12 12 12 12 12 12 12 12 12 12 12 12 12 13 13 13 13 13 13 13 13 14 14 14 15 15 15 15 15 16 16 16 16 16 16 16 16 15 15 15
12 12 12 12 12 12 12 12 12 12 12 12 12 12 12 12 12 12 13 13 13 13 13 13 14 14 14 14 14 15 15 15 15 15 16 16 16 16 16 16 15 15 15
12 12 12 12 12 12 12 12 12 12 12 12 12 12 12 12 12 12 12 12 12 12 12 12 13 13 14 14 14 14 14 15 15 15 15 15 15 15 15 15 15 15 15
12 12 12 12 12 12 12 12 12 12 12 12 12 12 12 12 12 12 12 12 12 12 12 12 12 13 13 13 13 14 14 14 14 14 15 15 15 15 15 15 15 15 15
12 12 12 12 12 12 12 12 12 12 12 12 12 11 11 11 11 12 12 12 12 12 12 12 12 12 13 13 13 13 13 14 14 14 14 14 14 15 15 15 15 15 15
12 12 12 12 12 12 12 12 12 12 12 12 12 11 11 11 11 11 12 12 12 12 12 12 12 12 12 12 13 13 13 13 13 14 14 14 14 14 14 14 14 14 14
13 12 12 12 12 12 12 12 12 12 12 11 11 11 12 11 11 12 12 12 12 11 11 11 12 12 12 12 12 12 13 13 13 13 13 13 13 14 14 14 14 14 14
13 13 13 13 12 12 12 12 12 12 12 11 11 11 11 11 11 11 11 11 11 11 11 11 12 12 12 12 12 12 12 12 12 13 13 13 13 13 13 14 14 14 13
13 13 13 13 13 13 12 12 12 12 12 12 11 11 11 11 11 11 11 11 11 11 11 11 11 12 12 12 12 12 12 12 12 12 12 12 13 13 13 13 13 13 13
13 13 13 13 13 13 12 12 12 12 12 12 11 11 11 11 11 11 11 11 11 11 11 11 11 11 12 12 12 12 12 11 12 12 12 12 12 12 12 13 13 13 13
Wind_Speed
2 2 2 2 3 3 2 2 2 3 3 3 4 5 5 5 7 7 7 9 10 11 11 11 12 12 12 11 10 10 10 10 11 12 12 12 11 11 11 11 11 11 10
2 2 3 3 2 3 2 2 3 3 3 3 4 4 5 5 6 7 8 8 10 11 12 11 12 13 13 12 12 11 11 11 11 12 12 12 12 12 12 11 11 11 10
3 2 2 2 3 3 2 2 2 2 2 2 3 4 4 4 4 6 7 7 7 9 11 12 12 13 13 13 13 12 12 12 12 12 13 13 13 12 12 12 11 11 10
3 2 2 3 3 2 1 2 2 2 2 2 2 3 3 3 4 5 6 6 6 6 9 11 12 13 13 13 13 13 13 13 13 13 13 13 13 13 13 12 12 11 10
4 2 2 3 3 2 1 2 1 2 2 2 3 3 3 3 4 4 4 5 6 6 7 9 12 14 14 14 14 14 14 14 14 14 14 14 14 13 13 13 12 12 11
4 2 2 2 2 1 1 1 1 1 2 2 2 2 3 3 3 3 4 3 4 6 6 7 8 11 14 15 15 14 14 15 15 15 15 15 14 14 14 13 13 12 12
4 2 2 2 2 1 1 1 0 1 1 1 0 1 2 2 3 3 3 3 4 4 5 6 7 8 10 15 16 15 15 15 16 16 16 16 15 15 14 14 14 13 13
4 3 2 2 1 1 1 1 0 1 1 1 1 1 1 2 2 3 2 3 3 2 4 5 6 8 9 9 13 17 16 16 17 17 17 17 17 16 16 15 15 14 13
4 3 2 1 1 0 1 1 1 1 1 1 1 2 2 2 1 1 2 2 2 2 3 3 6 8 10 10 11 15 18 17 17 18 18 18 18 18 17 17 16 15 15
4 4 3 2 2 1 1 2 1 1 1 1 1 1 2 2 1 1 2 1 2 3 4 4 5 6 9 10 11 14 17 18 19 19 19 19 19 19 19 18 17 17 16
4 4 3 2 2 1 2 2 1 1 1 2 1 1 0 0 1 1 1 2 1 2 3 4 4 4 7 9 10 13 16 18 20 20 20 20 20 20 20 19 19 18 18
4 5 3 3 2 2 2 2 2 1 2 2 2 2 2 1 2 2 2 2 2 2 2 3 4 4 5 7 10 12 15 17 19 20 20 20 20 20 20 19 19 19 18
4 5 5 3 3 2 2 2 1 1 1 2 2 2 3 3 2 2 2 1 2 2 2 2 3 3 5 6 7 10 13 16 18 19 19 19 19 20 20 21 20 20 19
4 5 5 4 3 2 2 1 1 1 1 2 2 2 2 3 2 3 3 2 1 2 2 3 2 3 3 4 6 8 8 13 15 17 18 18 19 19 19 20 20 20 19
4 5 5 5 4 3 2 2 1 1 1 1 2 2 1 2 2 3 3 3 3 2 3 3 2 2 2 3 5 6 8 10 12 15 16 17 18 19 19 19 19 19 19
4 5 5 5 5 4 3 2 2 2 2 2 1 1 1 1 1 2 2 3 3 3 3 2 2 2 2 3 4 6 8 9 10 13 15 16 17 17 18 18 18 18 18
4 5 5 5 5 4 3 3 2 2 2 2 2 1 1 1 1 1 1 2 2 3 4 3 2 2 2 3 3 3 5 6 6 10 13 14 15 16 17 18 18 18 18
4 4 5 5 5 4 4 3 3 3 3 3 3 2 2 1 1 1 1 2 2 3 3 4 3 2 3 3 3 3 3 4 5 8 11 12 13 15 15 16 17 17 18
5 5 5 5 5 4 4 3 3 3 3 3 3 2 3 2 2 1 1 2 2 2 2 3 3 2 2 2 2 3 3 3 4 6 8 10 12 13 14 15 16 16 17
4 5 4 4 4 4 4 3 3 3 3 3 3 2 2 2 2 2 2 2 2 2 2 3 3 3 3 2 2 3 3 3 3 3 5 6 9 12 13 14 15 15 16
4 4 4 5 5 4 3 3 3 3 3 4 4 3 3 3 4 3 2 2 2 2 2 2 3 3 3 2 3 2 3 2 3 3 3 3 4 5 7 10 13 15 16
4 4 4 4 5 4 6 6 4 3 3 3 4 5 5 5 5 5 5 4 3 3 3 3 3 4 4 4 3 3 3 2 3 2 3 4 4 5 5 6 10 13 14
3 4 4 4 5 6 7 6 5 2 2 3 3 4 4 5 6 4 5 5 4 4 4 4 5 5 4 4 4 4 4 4 4 2 2 3 3 5 4 6 10 12 14
3 4 4 4 4 6 7 6 4 3 2 3 3 3 3 5 5 4 4 4 4 4 4 3 4 5 5 5 5 5 4 3 2 2 3 3 3 3 3 4 9 11 13
4 4 4 4 4 6 7 6 3 1 2 3 3 3 3 4 7 6 4 4 5 5 5 4 4 5 6 6 4 2 3 3 3 3 3 3 2 2 2 3 6 10 12
4 4 4 4 4 5 7 6 3 0 2 3 4 4 5 5 7 6 3 3 5 5 6 6 5 5 4 4 3 3 4 3 2 3 3 3 2 2 2 2 3 4 7
Wind_Direction
311 307 301 303 292 278 270 271 260 258 249 246 242 236 232 233 234 233 239 245 246 243 236 225 213 206 200 195 192 189 185 182 178 176 174 170 165 163 161 159 158 154 153
311 314 311 305 298 283 267 255 246 243 246 240 247 237 234 233 233 234 235 243 248 243 235 228 217 208 204 200 195 192 187 186 183 181 178 174 171 169 167 165 162 160 159
326 311 303 300 299 297 276 260 255 236 242 246 251 248 235 233 232 233 232 235 244 244 233 226 219 211 208 205 200 196 193 190 186 184 182 179 177 176 173 171 168 165 163
330 316 297 290 300 307 284 255 240 236 236 240 246 250 242 240 238 233 228 227 230 234 230 226 219 211 211 209 205 200 197 194 191 189 186 184 183 181 180 179 175 172 171
334 320 294 294 311 298 280 272 232 224 239 240 239 241 245 247 247 240 227 222 222 221 221 224 221 213 211 212 211 206 202 199 197 195 191 188 188 185 185 185 182 180 180
338 330 299 311 322 307 298 276 243 239 242 239 250 253 243 246 245 240 234 223 216 216 217 217 218 219 215 213 214 212 209 204 202 201 199 196 194 191 190 191 190 189 188
345 333 320 324 330 313 295 288 242 243 260 206 160 284 274 251 246 245 235 224 219 211 208 210 210 213 216 217 215 214 214 211 208 206 205 202 199 197 196 197 198 198 198
344 338 327 316 316 311 333 325 216 190 233 181 158 150 292 313 276 252 233 225 226 210 212 218 210 213 211 211 215 215 215 215 213 211 209 207 203 201 201 203 203 204 206
342 335 328 321 322 326 282 280 242 191 223 238 188 161 168 225 279 303 259 241 220 219 227 216 214 216 215 212 213 216 215 216 217 217 215 213 209 206 205 207 208 209 210
340 341 334 334 335 330 302 284 237 217 188 217 253 230 202 171 175 320 331 306 244 228 231 230 221 215 214 212 214 213 216 216 217 220 220 218 217 212 210 210 211 213 213
338 340 333 334 331 315 295 291 296 239 198 200 200 203 212 193 176 181 282 313 303 248 231 230 225 215 213 213 216 218 217 218 218 220 222 220 220 218 215 214 214 215 216
336 345 342 340 327 313 299 291 281 248 215 211 213 197 182 187 191 185 221 260 276 275 253 237 228 219 215 213 221 223 220 220 220 220 222 222 221 220 217 217 218 218 219
334 334 340 337 327 316 305 302 303 291 240 217 223 222 207 210 193 184 197 224 260 287 287 263 235 222 222 214 224 229 227 223 221 222 221 221 223 223 221 220 220 220 221
313 322 335 338 333 334 338 335 327 301 273 251 245 234 217 220 204 201 192 183 229 278 277 266 273 235 229 217 227 231 234 228 222 222 222 220 220 222 222 222 222 222 223
330 345 349 351 352 352 354 5 355 326 326 299 272 253 228 226 213 219 211 199 193 221 249 253 261 272 251 239 237 233 233 233 226 224 224 222 220 221 223 222 222 223 224
346 353 356 356 359 4 8 17 1 352 5 339 311 292 261 253 245 224 215 219 214 209 237 243 244 258 269 264 244 234 235 235 232 228 226 225 222 220 219 220 221 223 225
348 353 351 354 360 4 6 14 5 9 10 354 352 351 310 273 257 249 218 212 221 215 241 261 250 261 259 260 265 244 243 237 235 229 224 221 221 220 218 219 221 223 224
347 349 350 357 359 2 5 9 3 4 3 354 349 352 339 345 337 278 231 225 228 223 225 257 274 262 253 259 261 253 247 242 235 232 226 223 220 220 219 220 221 222 223
345 350 356 356 353 353 356 0 5 4 357 342 338 343 333 341 333 321 286 252 246 241 227 241 266 259 259 261 260 257 245 243 246 241 230 224 223 222 221 222 222 221 221
337 338 341 340 341 343 344 349 1 3 356 349 341 329 317 303 290 292 290 270 254 249 240 244 254 258 256 258 241 242 252 236 246 243 230 221 221 223 222 221 222 222 220
327 327 336 339 339 335 332 344 347 357 359 356 350 339 322 317 308 292 277 261 248 245 248 253 261 262 253 243 239 227 237 248 248 227 225 224 215 221 222 224 223 222 219
320 329 331 331 333 332 340 347 352 358 357 355 346 341 340 348 348 339 322 308 279 254 246 249 260 256 256 245 245 235 223 229 251 216 205 228 205 221 223 219 219 217 216
310 316 317 321 317 316 331 341 355 8 357 347 340 341 347 348 351 342 339 344 340 315 272 250 255 255 254 244 235 239 227 226 236 222 200 234 214 226 226 224 217 214 213
289 295 301 306 306 313 328 334 348 11 359 343 336 330 332 333 336 345 350 349 340 328 302 273 257 261 260 253 242 239 229 225 250 241 197 225 219 228 227 226 222 217 214
281 282 286 300 304 309 325 329 337 355 341 329 328 330 329 330 339 356 2 348 338 327 320 302 283 286 286 271 242 216 206 213 247 239 203 204 215 224 238 241 228 217 215
269 284 289 287 285 295 312 321 328 264 313 316 325 329 333 335 339 351 351 337 330 320 325 327 324 322 316 305 270 224 211 215 232 239 206 193 199 187 245 244 228 218 217
Height
1506 1506 1505 1505 1506 1506 1507 1508 1509 1510 1511 1513 1514 1515 1517 1518 1520 1522 1523 1524 1525 1527 1528 1529 1530 1531 1533 1534 1536 1537 1539 1541 1543 1544 1546 1548 1550 1552 1553 1555 1556 1558 1559
1503 1503 1503 1503 1503 1503 1504 1504 1506 1507 1508 1510 1511 1512 1514 1515 1517 1519 1521 1522 1523 1525 1526 1527 1528 1530 1531 1533 1535 1536 1538 1540 1542 1544 1546 1548 1549 1551 1553 1554 1556 1557 1559
1501 1500 1500 1500 1500 1500 1500 1501 1502 1504 1505 1506 1507 1509 1510 1512 1514 1516 1518 1520 1521 1522 1524 1525 1526 1528 1530 1531 1533 1535 1537 1539 1541 1543 1545 1547 1549 1551 1552 1554 1555 1557 1558
1498 1498 1497 1497 1497 1497 1498 1498 1499 1500 1501 1502 1504 1505 1507 1509 1511 1513 1515 1517 1518 1520 1522 1523 1525 1526 1528 1530 1532 1534 1536 1537 1540 1542 1544 1546 1548 1550 1551 1553 1555 1556 1558
1496 1495 1495 1495 1495 1495 1495 1495 1496 1497 1498 1499 1501 1502 1503 1505 1507 1509 1511 1513 1515 1517 1519 1521 1523 1524 1526 1528 1530 1532 1534 1536 1538 1540 1542 1544 1546 1548 1550 1552 1554 1555 1557
1494 1493 1493 1492 1492 1492 1492 1493 1493 1494 1495 1496 1497 1498 1500 1502 1503 1505 1507 1510 1512 1514 1516 1518 1520 1522 1524 1526 1528 1530 1532 1534 1536 1538 1540 1542 1544 1547 1549 1550 1552 1554 1555
1492 1491 1490 1490 1490 1490 1490 1491 1491 1492 1492 1493 1494 1495 1497 1498 1499 1501 1504 1506 1508 1511 1513 1515 1517 1519 1521 1523 1525 1527 1529 1532 1534 1536 1538 1540 1542 1545 1546 1548 1550 1552 1554
1491 1490 1489 1488 1488 1488 1488 1488 1489 1489 1489 1491 1492 1493 1494 1496 1496 1498 1500 1502 1504 1507 1509 1511 1514 1516 1518 1520 1523 1525 1527 1529 1531 1533 1536 1538 1540 1542 1544 1546 1548 1550 1552
1489 1488 1488 1487 1487 1486 1486 1486 1487 1487 1487 1488 1490 1491 1492 1492 1493 1495 1496 1499 1501 1503 1505 1508 1510 1513 1515 1517 1519 1522 1524 1526 1528 1530 1533 1535 1537 1539 1542 1544 1545 1547 1549
1488 1487 1487 1486 1485 1485 1485 1485 1485 1485 1486 1486 1488 1489 1491 1491 1492 1492 1494 1495 1497 1499 1502 1504 1506 1509 1511 1514 1516 1518 1520 1523 1525 1527 1529 1532 1534 1536 1538 1540 1542 1544 1546
1488 1487 1486 1485 1484 1484 1483 1483 1483 1483 1484 1485 1485 1486 1488 1489 1490 1491 1491 1493 1494 1496 1498 1500 1502 1505 1507 1509 1512 1514 1517 1519 1521 1523 1526 1528 1530 1532 1535 1537 1539 1541 1543
1488 1486 1485 1484 1483 1483 1482 1482 1482 1482 1482 1483 1484 1484 1485 1487 1487 1489 1490 1491 1492 1493 1494 1496 1498 1500 1502 1505 1507 1510 1512 1515 1517 1519 1522 1524 1526 1528 1531 1532 1535 1537 1539
1487 1486 1485 1484 1483 1482 1481 1481 1481 1480 1480 1481 1482 1482 1483 1484 1485 1487 1488 1488 1489 1490 1491 1493 1494 1496 1498 1500 1503 1505 1508 1510 1513 1515 1517 1519 1522 1524 1526 1528 1530 1533 1535
1487 1486 1484 1483 1482 1481 1480 1480 1479 1479 1479 1479 1480 1481 1481 1482 1483 1484 1486 1486 1487 1487 1488 1489 1491 1492 1494 1495 1498 1500 1503 1505 1508 1510 1513 1515 1517 1519 1521 1524 1526 1528 1530
1487 1485 1484 1482 1481 1480 1479 1479 1478 1478 1478 1478 1478 1479 1479 1480 1481 1482 1483 1484 1485 1485 1485 1486 1487 1489 1490 1491 1493 1495 1497 1500 1502 1505 1507 1510 1512 1514 1516 1519 1521 1523 1525
1487 1485 1484 1482 1481 1480 1479 1478 1478 1477 1477 1477 1477 1477 1477 1478 1479 1479 1480 1481 1482 1482 1482 1482 1483 1485 1486 1487 1489 1490 1492 1494 1497 1499 1502 1504 1507 1509 1511 1513 1516 1518 1520
1488 1486 1484 1482 1481 1480 1479 1478 1477 1477 1477 1476 1476 1476 1476 1476 1476 1477 1477 1478 1478 1479 1479 1479 1480 1481 1482 1483 1484 1485 1487 1489 1491 1494 1496 1498 1501 1503 1505 1508 1510 1512 1514
1489 1487 1485 1483 1482 1480 1479 1478 1477 1477 1476 1475 1475 1474 1474 1474 1474 1474 1474 1475 1475 1476 1476 1476 1476 1477 1478 1479 1480 1481 1483 1484 1486 1488 1490 1492 1495 1497 1500 1502 1504 1506 1509
1490 1488 1486 1484 1483 1481 1480 1479 1478 1477 1476 1475 1474 1474 1473 1473 1472 1472 1472 1472 1472 1473 1473 1473 1473 1474 1474 1476 1476 1477 1478 1479 1481 1482 1484 1486 1489 1491 1493 1495 1498 1500 1502
1490 1489 1487 1485 1484 1482 1481 1480 1478 1477 1476 1475 1474 1473 1473 1472 1471 1471 1470 1470 1470 1470 1470 1470 1470 1470 1471 1472 1472 1473 1474 1475 1476 1478 1479 1481 1483 1485 1487 1489 1492 1494 1496
1491 1489 1488 1486 1485 1483 1482 1480 1479 1477 1476 1475 1474 1473 1472 1471 1470 1469 1469 1468 1468 1468 1468 1467 1467 1467 1468 1468 1469 1469 1470 1471 1472 1473 1475 1476 1478 1479 1481 1483 1485 1487 1490
1491 1489 1488 1486 1485 1484 1482 1481 1479 1478 1477 1475 1474 1473 1472 1471 1470 1469 1468 1467 1466 1466 1465 1465 1465 1465 1465 1465 1466 1466 1467 1468 1468 1470 1470 1472 1473 1474 1475 1477 1479 1481 1483
1491 1489 1488 1487 1485 1484 1483 1481 1480 1478 1477 1475 1474 1473 1472 1470 1469 1468 1467 1466 1465 1464 1464 1463 1462 1462 1462 1462 1462 1463 1463 1464 1464 1465 1467 1467 1468 1469 1470 1472 1473 1475 1476
1491 1489 1488 1487 1485 1484 1483 1481 1480 1478 1477 1476 1474 1473 1471 1470 1469 1467 1466 1465 1464 1463 1462 1461 1460 1459 1459 1459 1459 1459 1460 1460 1461 1462 1463 1463 1463 1464 1465 1466 1467 1469 1470
1490 1489 1488 1486 1485 1484 1482 1481 1480 1478 1477 1475 1474 1473 1471 1470 1468 1467 1465 1464 1463 1462 1460 1459 1458 1457 1456 1455 1455 1456 1456 1457 1457 1457 1458 1459 1459 1460 1460 1461 1462 1463 1464
1489 1488 1487 1485 1484 1483 1482 1480 1479 1478 1476 1475 1474 1472 1471 1469 1468 1466 1464 1463 1461 1460 1459 1457 1456 1455 1454 1453 1452 1452 1453 1453 1454 1454 1454 1455 1455 1456 1456 1456 1457 1458 1459